Weather History for Herat, Afghanistan

Change the Weather History Date:

Sunday, November 10, 2013

  Actual Average Record
Temperature  
Mean Temperature 54 °F -  
Max Temperature 68 °F 61 °F - ()
Min Temperature 39 °F 32 °F - ()
Degree Days  
Heating Degree Days 12    
Growing Degree Days 4 (Base 50)    
Moisture  
Dew Point 23 °F    
Average Humidity 30    
Maximum Humidity 47    
Minimum Humidity 16    
Precipitation  
Precipitation 0.00 in 0.03 in - ()
Sea Level Pressure  
Sea Level Pressure 30.28 in    
Wind  
Wind Speed 2 mph ()    
Max Wind Speed 6 mph    
Max Gust Speed -    
T = Trace of Precipitation, MM = Missing Value Source: Averaged Metar Reports

Daily Weather History Graph

Daily Weather History Graph

Search for Another Location

Airport:

Trip Planner

Search our weather history database for the weather conditions in past years. The results will help you decide how hot, cold, wet, or windy it might be!

Date:

Astronomy

Nov. 10, 2013 Rise Set
Actual Time 6:49 AM AFT 5:20 PM AFT
Civil Twilight 6:22 AM AFT 5:46 PM AFT
Nautical Twilight 5:52 AM AFT 6:16 PM AFT
Astronomical Twilight 5:23 AM AFT 6:46 PM AFT
Moon 12:51 PM AFT (11/10) 12:24 AM AFT (11/11)
Length of Visible Light 11h 24m
Length of Day
10h 31m
Waxing Crescent, 51% of the Moon is Illuminated
Nov 10
Waxing Crescent
Nov 17
Full
Nov 26
Last Quarter
Dec 3
New
Dec 9
First Quarter

Hourly Weather History & Observations

Time (AFT) Temp. Windchill Dew Point Humidity Pressure Visibility Wind Dir Wind Speed Gust Speed Precip Events Conditions
2:25 AM 39.2 °F - 15.8 °F 39% 30.21 in - Calm Calm - N/A   Clear
3:25 AM 44.6 °F - 19.4 °F 37% 30.24 in - SSW 2.3 mph - N/A   Clear
4:25 AM 42.8 °F 41.1 °F 17.6 °F 36% 30.24 in - NNE 3.5 mph - N/A   Clear
6:25 AM 41.0 °F - 21.2 °F 45% 30.27 in - WSW 1.2 mph - N/A   Clear
7:24 AM 42.8 °F - 19.4 °F 39% 30.30 in - WSW 1.2 mph - N/A   Clear
8:24 AM 51.8 °F - 19.4 °F 28% 30.33 in - WSW 1.2 mph - N/A   Clear
9:25 AM 53.6 °F - 19.4 °F 26% 30.33 in - NNE 2.3 mph - N/A   Clear
10:24 AM 55.4 °F - 19.4 °F 25% 30.33 in - North 4.6 mph - N/A   Clear
11:25 AM 60.8 °F - 24.8 °F 25% 30.33 in - NNW 4.6 mph - N/A   Clear
12:24 PM 64.4 °F - 21.2 °F 19% 30.30 in - NNW 4.6 mph - N/A   Clear
1:25 PM 66.2 °F - 21.2 °F 18% 30.27 in - NW 4.6 mph - N/A   Clear
2:25 PM 68.0 °F - 19.4 °F 16% 30.24 in - Variable 3.5 mph - N/A   Clear
3:25 PM 68.0 °F - 19.4 °F 16% 30.24 in - NW 4.6 mph - N/A   Clear
4:25 PM 68.0 °F - 21.2 °F 17% 30.24 in - Variable 3.5 mph - N/A   Clear
5:25 PM 64.4 °F - 26.6 °F 24% 30.24 in - WSW 1.2 mph - N/A   Unknown
6:25 PM 60.8 °F - 24.8 °F 25% 30.27 in - ENE 4.6 mph - N/A   Clear
7:25 PM 55.4 °F - 24.8 °F 31% 30.27 in - South 5.8 mph - N/A   Clear
8:24 PM 55.4 °F - 30.2 °F 38% 30.27 in - West 3.5 mph - N/A   Clear
9:25 PM 53.6 °F - 33.8 °F 47% 30.30 in - WSW 5.8 mph - N/A   Clear
10:24 PM 50.0 °F - 28.4 °F 43% 30.30 in - South 5.8 mph - N/A   Clear
11:24 PM 50.0 °F - 28.4 °F 43% 30.27 in - South 3.5 mph - N/A   Clear